Flag for Greenland Weather past 2 weeks in Nuuk, Greenland

Now
52 °F

Overcast.


Feels Like: 52 °F
Forecast: N/A
Wind: 1 mph from North

Location: Godthaab / Nuuk

Current Time: Aug 20, 2014 at 9:15:34 PM

Latest Report: Aug 20, 2014 at 8:50 PM


Visibility: N/A

Pressure: 30.30 "Hg

Humidity: 88%

Dew point: 48 °F

Location of NuukLocation

Historic Weather in Nuuk — Graph

°F

Nuuk temperature yesterday

Maximum temperature yesterday: 52 °F (at 2:50 PM)
Minimum temperature yesterday: 43 °F (at 12:50 AM)
Average temperature yesterday: 48 °F

Past Weeks' High & Low Weather Summary

 TemperatureHumidityPressure
High66 °F (Aug 16, 2:50 PM)100% (Aug 8, 5:50 AM)30.30 "Hg (Aug 8, 5:50 AM)
Low41 °F (Aug 5, 11:50 PM)35% (Aug 16, 2:50 PM)29.74 "Hg (Aug 14, 11:50 AM)
Average48 °F84%30.12 "Hg
* Reported Aug 5 7:50 PM — Aug 20 7:50 PM, Nuuk, Weather by CustomWeather, © 2014

Note: Actual official high and low records may vary slightly from our data, if they occured in-between our weather recording intervals... More about our weather records

Advertising

Nuuk weather history for previous 24 hours

 ConditionsComfort  
Time TempWeatherWind HumidityBarometerVisibility
7:50 PM
Aug 20
52 °FFog.1 mph88%30.30 "HgN/A
6:50 PM52 °FPartly sunny.1 mph88%30.30 "HgN/A
5:50 PM52 °FPartly sunny.2 mph88%30.30 "HgN/A
4:50 PM50 °FPartly sunny.5 mph94%30.30 "HgN/A
3:50 PM50 °FPartly sunny.3 mph94%30.30 "HgN/A
2:50 PM50 °FPartly sunny.7 mph88%30.30 "HgN/A
1:50 PM50 °FPartly sunny.5 mph88%30.30 "HgN/A
12:50 PM52 °FBroken clouds.5 mph82%30.27 "HgN/A
11:50 AM50 °FBroken clouds.2 mph82%30.27 "HgN/A
10:50 AM52 °FBroken clouds.2 mph82%30.27 "HgN/A
9:50 AM50 °FBroken clouds.1 mph88%30.27 "HgN/A
8:50 AM50 °FPartly sunny.No wind94%30.24 "HgN/A
7:50 AM50 °FPartly sunny.1 mph88%30.24 "HgN/A
6:50 AM50 °FBroken clouds.3 mph88%30.24 "HgN/A
5:50 AM50 °FPartly cloudy.No wind88%30.24 "HgN/A
4:50 AM48 °FPassing clouds.1 mph94%30.24 "HgN/A
3:50 AM46 °FSprinkles. Overcast.2 mph93%30.24 "HgN/A
2:50 AM50 °FLight rain. Overcast.3 mph88%30.21 "HgN/A
1:50 AM48 °FSprinkles. Partly cloudy.2 mph87%30.24 "HgN/A
12:50 AM50 °FPassing clouds.3 mph88%30.21 "HgN/A
11:50 PM
Aug 19
46 °FSprinkles. Overcast.6 mph93%30.24 "HgN/A
10:50 PM48 °FPartly cloudy.6 mph82%30.24 "HgN/A
9:50 PM50 °FOvercast.6 mph76%30.24 "HgN/A
Weather by CustomWeather, © 2014

See weather overviewHow to use our weather pages